[[{"header":{"parameterUnit":"m.s-1","parameterCategory":1,"la1":30.2991,"la2":30.254,"lo1":-89.0895,"lo2":-89.0444,"dy":0.0017,"dx":0.0017,"nx":28,"ny":28,"refTime":"2023-07-31T09:00:00:Z","depth":0,"parameterNumber":2,"parameterNumberName":"U-component_of_WINDS"},"data":[0,0,0,0,0,0,0,0,0,0,0,0,0,0,0,0,0,0,0,0,0,0,0,0,0,0,0,0,0,0,0,0,0,0,0,0,0,0,0,0,0,0,0,0,0,0,0,0,0,0,0,0,0,0,0,0,0,0,0.5889,0.5891,0,0.6058,0.606,0.6062,0.6136,0.6136,0.6136,0.6136,0.6311,0.6315,0.632,0,0,0,0,0,0,0,0,0,0,0,0,0,0.5629,0.5634,0.5889,0.5891,0.5893,0.6058,0.606,0.6063,0.6136,0.6136,0.6136,0.6136,0.6309,0.6315,0.6321,0,0,0,0,0,0,0,0,0,0,0,0,0,0.5765,0.5635,0.5888,0.595,0.5957,0.6057,0.606,0.6063,0.6137,0.6136,0.6136,0.6135,0.6307,0.6314,0.6321,0.6374,0,0,0.6344,0.6347,0,0,0,0,0,0,0,0,0.5757,0.5774,0.5938,0.5946,0.5954,0.6076,0.6033,0.6167,0.6137,0.6068,0.6136,0.6135,0.6233,0.6246,0.6279,0.6382,0.639,0.6344,0.6349,0.6352,0.6354,0,0,0,0,0,0,0,0.5747,0.5767,0.5956,0.5941,0.595,0.5969,0.5988,0.6059,0.6151,0.6074,0.608,0.6099,0.6237,0.6272,0.6284,0.6392,0.6344,0.6351,0.6355,0.6358,0.6547,0.6548,0,0,0,0,0,0,0.5728,0.5759,0.595,0.5961,0.5852,0.5974,0.5995,0.6037,0.615,0.6167,0.6099,0.6102,0.6259,0.6275,0.629,0.6359,0.6352,0.6359,0.6363,0.6547,0.6547,0.6548,0,0,0,0,0,0,0.5722,0.5744,0.5944,0.5862,0.5888,0.5979,0.6025,0.6041,0.6075,0.6169,0.6186,0.6118,0.626,0.628,0.6352,0.6366,0.6362,0.6369,0.6546,0.6547,0.6548,0.6497,0,0,0,0,0,0,0.5714,0.5742,0.5763,0.5861,0.5892,0.6003,0.6026,0.6044,0.6088,0.6093,0.6191,0.6207,0.6261,0.6341,0.636,0.6376,0.6375,0.6545,0.6546,0.6547,0.6498,0.6496,0.6495,0,0,0,0,0,0.5705,0.5742,0.5763,0.5786,0.592,0.6003,0.6021,0.6082,0.6088,0.611,0.617,0.6204,0.6361,0.6348,0.637,0.6388,0.6544,0.6546,0.6547,0.6499,0.6497,0.6495,0,0,0,0,0,0,0.5643,0.5756,0.5781,0.5851,0.5917,0.6016,0.6045,0.6078,0.6144,0.6146,0.622,0.6241,0.6308,0.6356,0.6338,0.6445,0.6456,0.6462,0.6412,0.641,0.6409,0.6396,0.6381,0,0,0,0,0,0.5637,0.5695,0.5791,0.5844,0.5875,0.5954,0.5993,0.6034,0.6106,0.6134,0.6199,0.6268,0.6333,0.6374,0.6439,0.6505,0.6528,0.6529,0.6527,0.6525,0.653,0.6568,0.657,0.6553,0.6553,0.6553,0,0,0.5626,0.5695,0.5728,0.5833,0.5889,0.5947,0.5977,0.6038,0.6082,0.6143,0.6216,0.6266,0.6347,0.6417,0.6451,0.6458,0.6539,0.6527,0.6525,0.6531,0.657,0.6571,0.6572,0.6554,0.6553,0.6553,0,0,0.5637,0.5694,0.5745,0.58,0.5884,0.5936,0.5948,0.6042,0.6077,0.6151,0.6198,0.6252,0.6363,0.6418,0.6461,0.6491,0.6525,0.6511,0.6502,0.6539,0.654,0.6542,0.6553,0.6556,0.6514,0.6514,0.6514,0,0.5613,0.5703,0.5766,0.5825,0.5869,0.5927,0.5978,0.6029,0.613,0.616,0.6167,0.6306,0.6365,0.6448,0.6455,0.6488,0.6504,0.65,0.6535,0.6537,0.6539,0.6551,0.6555,0.6512,0.6512,0.6513,0.6513,0,0.5669,0.573,0.5761,0.5856,0.5905,0.5959,0.6031,0.6072,0.6109,0.616,0.6235,0.6307,0.6388,0.641,0.6447,0.6499,0.6501,0.652,0.6533,0.6538,0.6549,0.6554,0.6509,0.651,0.651,0.6511,0,0,0.5646,0.5775,0.5786,0.583,0.5926,0.5975,0.6032,0.611,0.6144,0.6211,0.6261,0.6353,0.6371,0.6419,0.6463,0.6495,0.6514,0.6511,0.6514,0.6509,0.6576,0.6561,0.6565,0.6536,0.6538,0.6538,0.6569,0,0.5669,0.5774,0.5832,0.5912,0.597,0.6025,0.6074,0.6139,0.6188,0.6244,0.6299,0.6362,0.6382,0.6411,0.6445,0.6504,0.6529,0.6503,0.6584,0.6586,0.6562,0.6571,0.6556,0.6581,0.6574,0.6575,0.6575,0,0.5711,0.5777,0.5862,0.5952,0.5978,0.6022,0.6098,0.6151,0.6225,0.6259,0.6312,0.6355,0.6417,0.6424,0.6511,0.6492,0.6528,0.6562,0.6565,0.6575,0.6581,0.6582,0.659,0.6594,0.6583,0.6583,0.6582,0,0.5686,0.5796,0.5861,0.5897,0.6003,0.6032,0.6078,0.6152,0.6195,0.6262,0.629,0.6363,0.6403,0.6459,0.6521,0.652,0.6602,0.6613,0.6631,0.663,0.6647,0.6645,0.6661,0.6669,0.6669,0.6669,0.6669,0,0.5706,0.5756,0.5851,0.5891,0.5949,0.6016,0.6071,0.6121,0.6186,0.6237,0.6289,0.6336,0.6414,0.6471,0.652,0.6584,0.6602,0.6631,0.6643,0.6627,0.6623,0.6652,0.6652,0.667,0.667,0.667,0.6669,0,0.5688,0.5753,0.5828,0.5922,0.5947,0.5985,0.6066,0.6107,0.6159,0.6222,0.6241,0.6322,0.6391,0.6458,0.6551,0.6584,0.6648,0.6665,0.6623,0.663,0.6644,0.6642,0.6681,0.6689,0.669,0.669,0.669,0,0.5697,0.5737,0.5835,0.5872,0.5917,0.5977,0.6021,0.6088,0.6132,0.6219,0.625,0.6322,0.6384,0.6492,0.656,0.6631,0.665,0.6658,0.6661,0.6642,0.665,0.6647,0.6652,0.6656,0.6656,0.6656,0.6656,0,0.5706,0.5736,0.5798,0.587,0.5921,0.5982,0.6044,0.6072,0.6151,0.6198,0.6269,0.6317,0.6411,0.6483,0.6562,0.6609,0.6646,0.6654,0.6662,0.6646,0.662,0.6634,0.6619,0.6653,0.6653,0.6654,0.6654,0.6654,0.5702,0.574,0.5815,0.5881,0.5935,0.5992,0.6035,0.6092,0.6152,0.6234,0.627,0.6341,0.6415,0.6524,0.6571,0.6628,0.6637,0.6649,0.6652,0.6654,0.665,0.661,0.6643,0.6643,0.6643,0.6643,0.6643,0,0.5714,0.5765,0.5825,0.5911,0.5963,0.5992,0.6062,0.6104,0.6167,0.6231,0.6291,0.6372,0.6442,0.6514,0.6588,0.662,0.6638,0.6637,0.6636,0.6646,0.6638,0.6623,0.6621,0.6621,0.6621,0.6621,0.6621,0.6621,0.5726,0.5792,0.5831,0.5923,0.5974,0.6044,0.6082,0.6135,0.6187,0.6275,0.6333,0.638,0.6448,0.6527,0.6592,0.6611,0.6636,0.663,0.6654,0.6645,0.6647,0.6648,0.6635,0.6635,0.6635,0.6658,0.6658,0.6659]},{"header":{"parameterUnit":"m.s-1","parameterCategory":1,"la1":30.2991,"la2":30.254,"lo1":-89.0895,"lo2":-89.0444,"dy":0.0017,"dx":0.0017,"nx":28,"ny":28,"refTime":"2023-07-31T09:00:00:Z","depth":0,"parameterNumber":3,"parameterNumberName":"V-component_of_WINDS"},"data":[0,0,0,0,0,0,0,0,0,0,0,0,0,0,0,0,0,0,0,0,0,0,0,0,0,0,0,0,0,0,0,0,0,0,0,0,0,0,0,0,0,0,0,0,0,0,0,0,0,0,0,0,0,0,0,0,0,0,2.7976,2.7975,0,2.7922,2.7921,2.7921,2.7876,2.7876,2.7875,2.7875,2.7815,2.7814,2.7813,0,0,0,0,0,0,0,0,0,0,0,0,0,2.8037,2.8036,2.7976,2.7975,2.7975,2.7922,2.7921,2.7921,2.7876,2.7876,2.7875,2.7874,2.7816,2.7814,2.7813,0,0,0,0,0,0,0,0,0,0,0,0,0,2.7999,2.8036,2.7976,2.7946,2.7943,2.7922,2.7921,2.792,2.7876,2.7876,2.7875,2.7874,2.7816,2.7814,2.7813,2.7816,0,0,2.7807,2.7807,0,0,0,0,0,0,0,0,2.8002,2.7997,2.7951,2.7948,2.7945,2.7905,2.7921,2.7885,2.7876,2.7901,2.7875,2.7874,2.7845,2.7841,2.7832,2.7813,2.7811,2.7807,2.7806,2.7805,2.7805,0,0,0,0,0,0,0,2.8004,2.7999,2.7954,2.7951,2.7947,2.7934,2.7928,2.7914,2.7878,2.7899,2.7896,2.789,2.7843,2.7834,2.7831,2.781,2.7807,2.7806,2.7805,2.7804,2.779,2.7791,0,0,0,0,0,0,2.8012,2.8002,2.7956,2.7953,2.7972,2.7934,2.7927,2.7918,2.7878,2.7871,2.7891,2.7888,2.7838,2.7833,2.7828,2.7829,2.7805,2.7804,2.7803,2.7789,2.779,2.7791,0,0,0,0,0,0,2.8013,2.8008,2.7958,2.7976,2.7969,2.7934,2.7924,2.7918,2.7909,2.7872,2.7865,2.7889,2.7837,2.7831,2.782,2.7827,2.7803,2.7801,2.7789,2.779,2.7791,2.7832,0,0,0,0,0,0,2.8015,2.8009,2.8011,2.7977,2.7968,2.7952,2.7925,2.7917,2.7906,2.7902,2.7868,2.7861,2.7836,2.7823,2.7818,2.7824,2.78,2.7788,2.7789,2.779,2.7829,2.7834,2.7838,0,0,0,0,0,2.8018,2.8023,2.8011,2.8006,2.797,2.7952,2.7947,2.7919,2.7907,2.7908,2.7884,2.7862,2.7827,2.7822,2.7816,2.7822,2.7787,2.7789,2.779,2.7827,2.7833,2.7838,0,0,0,0,0,0,2.8057,2.8018,2.8004,2.8,2.798,2.7945,2.7945,2.7926,2.7908,2.7905,2.787,2.7862,2.7855,2.7837,2.7832,2.7823,2.7804,2.7805,2.7834,2.7839,2.7843,2.7847,2.7799,0,0,0,0,0,2.8066,2.8056,2.8022,2.8021,2.8012,2.7981,2.7972,2.7952,2.793,2.792,2.7896,2.7874,2.7858,2.7848,2.7831,2.7827,2.7818,2.7828,2.7832,2.7836,2.7836,2.7833,2.7836,2.7796,2.7796,2.7796,0,0,2.8083,2.806,2.8056,2.8029,2.8011,2.8,2.7974,2.7963,2.7955,2.7918,2.7906,2.7888,2.7861,2.7854,2.7849,2.7838,2.7846,2.7838,2.7841,2.7839,2.7835,2.7838,2.7842,2.7797,2.7797,2.7797,0,0,2.8108,2.8091,2.8088,2.8071,2.8045,2.8025,2.8024,2.7992,2.7979,2.7967,2.7939,2.7928,2.7901,2.7883,2.787,2.789,2.7869,2.7886,2.7907,2.7903,2.7907,2.7909,2.7916,2.7918,2.7886,2.7887,2.7887,0,2.8132,2.8116,2.8088,2.808,2.8069,2.8037,2.8034,2.8018,2.7988,2.798,2.797,2.7936,2.7915,2.7903,2.7908,2.7899,2.7896,2.7889,2.7909,2.7911,2.7913,2.7919,2.7921,2.7889,2.7888,2.7888,2.7888,0,2.8146,2.8136,2.8136,2.811,2.8098,2.8092,2.8063,2.8055,2.8036,2.8016,2.8004,2.7979,2.7956,2.7952,2.7934,2.7937,2.7932,2.7916,2.7896,2.792,2.7924,2.7926,2.7892,2.7891,2.789,2.789,0,0,2.8193,2.8153,2.8153,2.8141,2.8111,2.8101,2.8094,2.8074,2.8067,2.8047,2.8039,2.8018,2.8003,2.7989,2.7968,2.7965,2.7982,2.7949,2.7948,2.7955,2.7984,2.7996,2.7999,2.7968,2.7969,2.7969,2.7986,0,2.8213,2.8199,2.8175,2.8168,2.8158,2.8129,2.8122,2.8102,2.8084,2.8071,2.805,2.8035,2.8017,2.8008,2.8004,2.7981,2.7987,2.7979,2.7959,2.7959,2.7966,2.8001,2.8014,2.8031,2.7988,2.7988,2.7988,0,2.8234,2.8218,2.8211,2.8182,2.8177,2.8171,2.8151,2.814,2.8117,2.8103,2.8088,2.8066,2.8055,2.8039,2.8023,2.8019,2.8009,2.7996,2.7996,2.7992,2.7974,2.7998,2.8036,2.8038,2.7991,2.7991,2.799,0,2.8268,2.8245,2.8237,2.8228,2.8194,2.8191,2.8177,2.8153,2.8142,2.8124,2.8117,2.8097,2.8086,2.8071,2.8044,2.8034,2.8031,2.8012,2.8018,2.8019,2.8018,2.8018,2.8054,2.8014,2.8014,2.8014,2.8013,0,2.8292,2.8289,2.8253,2.8248,2.8243,2.8215,2.8211,2.8193,2.8173,2.8164,2.8137,2.8128,2.8093,2.8081,2.8059,2.8049,2.8045,2.8033,2.8027,2.8035,2.8036,2.8027,2.8025,2.8014,2.8014,2.8014,2.8014,0,2.8329,2.8305,2.8295,2.8265,2.8257,2.8255,2.8228,2.8222,2.8203,2.8191,2.8187,2.8156,2.8139,2.8111,2.8086,2.8072,2.8066,2.8056,2.8074,2.8071,2.8078,2.8078,2.8109,2.8112,2.807,2.8071,2.8071,0,2.8346,2.8343,2.8313,2.8305,2.8293,2.8281,2.8271,2.8243,2.8233,2.8207,2.8204,2.8186,2.817,2.8145,2.8119,2.81,2.8089,2.8102,2.8086,2.8094,2.8088,2.8089,2.8088,2.8105,2.8105,2.8106,2.8106,0,2.8377,2.8366,2.8353,2.8336,2.8325,2.8309,2.8292,2.8288,2.8256,2.8246,2.823,2.8218,2.8193,2.8175,2.8153,2.8136,2.8116,2.8112,2.8112,2.8119,2.813,2.8124,2.8083,2.8111,2.811,2.811,2.811,2.8109,2.8404,2.84,2.8379,2.8365,2.835,2.8335,2.8328,2.8309,2.8295,2.8274,2.8258,2.8243,2.822,2.8188,2.8173,2.816,2.815,2.8151,2.8151,2.8152,2.8155,2.8133,2.8156,2.8156,2.8155,2.8155,2.8155,0,2.8434,2.8419,2.8407,2.8385,2.8374,2.8358,2.8339,2.833,2.8318,2.8299,2.8285,2.8266,2.8249,2.8222,2.8203,2.8198,2.8188,2.8193,2.8193,2.8189,2.8164,2.8166,2.8202,2.8202,2.8202,2.8202,2.8202,2.8202,2.8448,2.8441,2.8427,2.8412,2.8396,2.8383,2.8373,2.8359,2.8344,2.8325,2.8311,2.8295,2.8272,2.8251,2.8234,2.8227,2.8221,2.8229,2.8219,2.8196,2.8191,2.8187,2.8188,2.8228,2.8228,2.8245,2.8245,2.8245]}]]